| time (UTC) | temp F | wind direction | speed MPH | gust MPH | rain 1hr in | rain 24hr in | rain mn in | humidity % | barometer mb |
| 20260510091511 | 38 | 38 | 0.0 | 10.0 | 0.00 | 0.00 | 0.00 | 65 | 1017.8 |
| 20260510090011 | 38 | 341 | 0.0 | 4.0 | 0.00 | 0.00 | 0.00 | 65 | 1017.6 |
| 20260510084512 | 38 | 340 | 0.0 | 4.0 | 0.00 | 0.00 | 0.00 | 66 | 1017.6 |
| 20260510083012 | 38 | 343 | 0.0 | 2.0 | 0.00 | 0.01 | 0.00 | 66 | 1017.5 |
| 20260510081519 | 38 | 343 | 0.0 | 2.0 | 0.00 | 0.02 | 0.00 | 66 | 1017.3 |
| 20260510080015 | 39 | 343 | 0.0 | 2.0 | 0.00 | 0.02 | 0.00 | 67 | 1017.2 |
| 20260510074518 | 39 | 343 | 0.0 | 4.0 | 0.00 | 0.02 | 0.00 | 68 | 1017.2 |
| 20260510073012 | 38 | 24 | 0.0 | 0.0 | 0.00 | 0.02 | 0.00 | 71 | 1017.0 |
| 20260510071518 | 38 | 24 | 0.0 | 0.0 | 0.00 | 0.02 | 0.00 | 70 | 1016.8 |
| 20260510070027 | 39 | 24 | 0.0 | 0.0 | 0.00 | 0.02 | 0.00 | 68 | 1016.9 |
| 20260510064524 | 39 | 24 | 0.0 | 0.0 | 0.00 | 0.02 | 0.00 | 67 | 1016.8 |
| 20260510063015 | 41 | 24 | 0.0 | 0.0 | 0.00 | 0.02 | 0.00 | 64 | 1016.8 |
| 20260510061518 | 41 | 24 | 0.0 | 0.0 | 0.00 | 0.02 | 0.00 | 63 | 1016.8 |
| 20260510060023 | 41 | 24 | 0.0 | 1.0 | 0.00 | 0.02 | 0.00 | 64 | 1016.9 |
| 20260510054525 | 41 | 24 | 0.0 | 0.0 | 0.00 | 0.02 | 0.00 | 63 | 1016.8 |
| 20260510053014 | 42 | 24 | 0.0 | 0.0 | 0.00 | 0.02 | 0.00 | 62 | 1016.6 |
| 20260510051523 | 42 | 24 | 0.0 | 0.0 | 0.00 | 0.02 | 0.00 | 62 | 1016.5 |
| 20260510050023 | 41 | 24 | 0.0 | 0.0 | 0.00 | 0.02 | 0.00 | 63 | 1016.5 |
| 20260510044524 | 42 | 24 | 0.0 | 0.0 | 0.00 | 0.02 | 0.02 | 61 | 1016.5 |
| 20260510043024 | 43 | 24 | 0.0 | 0.0 | 0.00 | 0.02 | 0.02 | 59 | 1016.4 |
| 20260510041521 | 44 | 24 | 0.0 | 0.0 | 0.00 | 0.02 | 0.02 | 56 | 1016.4 |
| 20260510040005 | 45 | 24 | 0.0 | 0.0 | 0.00 | 0.02 | 0.02 | 55 | 1016.2 |
| 20260510034509 | 46 | 24 | 0.0 | 0.0 | 0.00 | 0.02 | 0.02 | 52 | 1016.1 |
| 20260510033019 | 47 | 24 | 0.0 | 0.0 | 0.00 | 0.02 | 0.02 | 51 | 1016.0 |
| 20260510031524 | 48 | 24 | 0.0 | 0.0 | 0.00 | 0.02 | 0.02 | 48 | 1015.9 |
| 20260510030005 | 49 | 24 | 0.0 | 0.0 | 0.00 | 0.02 | 0.02 | 45 | 1015.8 |
| 20260510024509 | 51 | 24 | 0.0 | 0.0 | 0.00 | 0.02 | 0.02 | 42 | 1015.6 |
| 20260510023016 | 52 | 24 | 0.0 | 0.0 | 0.00 | 0.02 | 0.02 | 40 | 1015.5 |
| 20260510021522 | 54 | 24 | 0.0 | 1.0 | 0.00 | 0.02 | 0.02 | 39 | 1015.3 |
| 20260510020008 | 55 | 24 | 0.0 | 4.0 | 0.00 | 0.02 | 0.02 | 38 | 1015.1 |
| 20260510014520 | 56 | 24 | 1.0 | 4.0 | 0.00 | 0.02 | 0.02 | 37 | 1015.0 |
| 20260510013020 | 57 | 24 | 1.0 | 5.0 | 0.00 | 0.02 | 0.02 | 35 | 1014.6 |
| 20260510011533 | 58 | 24 | 2.0 | 8.0 | 0.00 | 0.02 | 0.02 | 33 | 1014.6 |
| 20260510010037 | 58 | 26 | 3.0 | 8.0 | 0.00 | 0.02 | 0.02 | 33 | 1014.5 |
| 20260510004527 | 59 | 21 | 3.0 | 10.0 | 0.00 | 0.02 | 0.02 | 32 | 1014.5 |
| 20260510003021 | 59 | 9 | 5.0 | 12.0 | 0.00 | 0.02 | 0.02 | 31 | 1014.3 |
| 20260510001526 | 59 | 355 | 8.0 | 14.0 | 0.00 | 0.02 | 0.02 | 31 | 1014.2 |
| 20260510000029 | 60 | 11 | 3.0 | 12.0 | 0.00 | 0.02 | 0.02 | 30 | 1014.3 |
| 20260509234526 | 60 | 29 | 6.0 | 14.0 | 0.00 | 0.02 | 0.02 | 30 | 1014.2 |
| 20260509233019 | 62 | 28 | 8.0 | 13.0 | 0.00 | 0.02 | 0.02 | 28 | 1014.1 |
| 20260509231531 | 62 | 5 | 4.0 | 15.0 | 0.00 | 0.02 | 0.02 | 29 | 1014.1 |
| 20260509230028 | 62 | 19 | 8.0 | 14.0 | 0.00 | 0.02 | 0.02 | 29 | 1014.0 |
| 20260509224529 | 62 | 34 | 8.0 | 14.0 | 0.00 | 0.02 | 0.02 | 28 | 1014.0 |
| 20260509223023 | 61 | 14 | 2.0 | 15.0 | 0.00 | 0.02 | 0.02 | 29 | 1014.0 |
| 20260509221524 | 61 | 10 | 3.0 | 13.0 | 0.00 | 0.02 | 0.02 | 29 | 1014.1 |
| 20260509220013 | 62 | 19 | 4.0 | 11.0 | 0.00 | 0.02 | 0.02 | 30 | 1014.1 |
| 20260509214520 | 62 | 36 | 8.0 | 15.0 | 0.00 | 0.02 | 0.02 | 29 | 1014.2 |
| 20260509213005 | 61 | 30 | 9.0 | 16.0 | 0.00 | 0.02 | 0.02 | 29 | 1014.2 |
| 20260509211506 | 61 | 36 | 8.0 | 17.0 | 0.00 | 0.02 | 0.02 | 30 | 1014.2 |
| 20260509210016 | 61 | 11 | 6.0 | 13.0 | 0.00 | 0.02 | 0.02 | 31 | 1014.1 |
| 20260509204520 | 61 | 5 | 7.0 | 16.0 | 0.00 | 0.02 | 0.02 | 29 | 1014.1 |
| 20260509203003 | 61 | 11 | 3.0 | 15.0 | 0.00 | 0.02 | 0.02 | 30 | 1014.1 |
| 20260509201508 | 60 | 9 | 5.0 | 13.0 | 0.00 | 0.02 | 0.02 | 31 | 1014.1 |
| 20260509200018 | 60 | 355 | 9.0 | 16.0 | 0.00 | 0.02 | 0.02 | 33 | 1014.1 |
| 20260509194520 | 60 | 67 | 6.0 | 14.0 | 0.00 | 0.02 | 0.02 | 32 | 1014.0 |
| 20260509193026 | 59 | 36 | 7.0 | 16.0 | 0.00 | 0.02 | 0.02 | 37 | 1014.2 |
| 20260509191512 | 58 | 54 | 6.0 | 14.0 | 0.00 | 0.02 | 0.02 | 35 | 1014.0 |
| 20260509190035 | 58 | 19 | 6.0 | 14.0 | 0.00 | 0.02 | 0.02 | 35 | 1014.1 |
| 20260509184532 | 58 | 10 | 8.0 | 15.0 | 0.00 | 0.02 | 0.02 | 34 | 1014.1 |
| 20260509183029 | 57 | 26 | 8.0 | 13.0 | 0.00 | 0.02 | 0.02 | 35 | 1014.0 |
| 20260509181513 | 58 | 346 | 9.0 | 18.0 | 0.00 | 0.02 | 0.02 | 34 | 1014.1 |
| 20260509180021 | 57 | 11 | 8.0 | 14.0 | 0.00 | 0.02 | 0.02 | 35 | 1014.1 |
| 20260509174526 | 56 | 46 | 4.0 | 15.0 | 0.00 | 0.02 | 0.02 | 39 | 1014.1 |
| 20260509173026 | 55 | 26 | 5.0 | 14.0 | 0.00 | 0.02 | 0.02 | 42 | 1013.9 |
| 20260509171514 | 56 | 19 | 6.0 | 14.0 | 0.00 | 0.02 | 0.02 | 39 | 1013.9 |
| 20260509170028 | 55 | 23 | 5.0 | 16.0 | 0.00 | 0.02 | 0.02 | 41 | 1013.9 |
| 20260509164526 | 54 | 88 | 6.0 | 13.0 | 0.00 | 0.02 | 0.02 | 42 | 1013.7 |
| 20260509163029 | 55 | 46 | 4.0 | 12.0 | 0.00 | 0.02 | 0.02 | 45 | 1013.6 |
| 20260509161516 | 53 | 67 | 7.0 | 12.0 | 0.00 | 0.02 | 0.02 | 47 | 1013.4 |
| 20260509160020 | 53 | 60 | 5.0 | 16.0 | 0.00 | 0.02 | 0.02 | 45 | 1013.2 |
| 20260509154524 | 53 | 44 | 7.0 | 14.0 | 0.00 | 0.02 | 0.02 | 46 | 1013.0 |
| 20260509153032 | 52 | 25 | 5.0 | 17.0 | 0.00 | 0.02 | 0.02 | 47 | 1012.9 |
| 20260509151515 | 51 | 29 | 7.0 | 13.0 | 0.00 | 0.02 | 0.02 | 49 | 1012.7 |
| 20260509150028 | 50 | 44 | 5.0 | 14.0 | 0.00 | 0.02 | 0.02 | 52 | 1012.6 |
| 20260509144528 | 50 | 68 | 8.0 | 14.0 | 0.00 | 0.02 | 0.02 | 50 | 1012.4 |
| 20260509143028 | 50 | 28 | 8.0 | 14.0 | 0.00 | 0.02 | 0.02 | 55 | 1012.1 |
| 20260509141535 | 49 | 51 | 5.0 | 14.0 | 0.00 | 0.02 | 0.02 | 60 | 1011.9 |
| 20260509140032 | 48 | 78 | 8.0 | 14.0 | 0.00 | 0.02 | 0.02 | 62 | 1011.5 |
| 20260509134533 | 47 | 26 | 8.0 | 15.0 | 0.00 | 0.02 | 0.02 | 68 | 1011.3 |
| 20260509133033 | 47 | 76 | 6.0 | 12.0 | 0.00 | 0.02 | 0.02 | 72 | 1011.2 |
| 20260509131508 | 47 | 65 | 6.0 | 13.0 | 0.00 | 0.02 | 0.02 | 74 | 1010.9 |
| 20260509130005 | 46 | 79 | 7.0 | 12.0 | 0.00 | 0.02 | 0.02 | 75 | 1010.4 |
| 20260509124507 | 45 | 53 | 4.0 | 11.0 | 0.00 | 0.02 | 0.02 | 78 | 1010.1 |
| 20260509123003 | 44 | 44 | 5.0 | 10.0 | 0.00 | 0.02 | 0.02 | 81 | 1009.8 |
| 20260509121504 | 43 | 30 | 4.0 | 10.0 | 0.00 | 0.02 | 0.02 | 84 | 1009.5 |
| 20260509120006 | 43 | 32 | 4.0 | 10.0 | 0.00 | 0.02 | 0.02 | 85 | 1009.2 |
| 20260509114510 | 43 | 58 | 3.0 | 10.0 | 0.00 | 0.02 | 0.02 | 86 | 1009.1 |
| 20260509113002 | 43 | 36 | 3.0 | 10.0 | 0.00 | 0.02 | 0.02 | 86 | 1008.8 |
| 20260509111504 | 44 | 21 | 3.0 | 11.0 | 0.00 | 0.02 | 0.02 | 86 | 1008.6 |
| 20260509110019 | 45 | 41 | 4.0 | 9.0 | 0.00 | 0.02 | 0.02 | 86 | 1008.5 |
| 20260509104514 | 45 | 32 | 2.0 | 9.0 | 0.00 | 0.02 | 0.02 | 86 | 1008.2 |
| 20260509103025 | 46 | 26 | 4.0 | 10.0 | 0.00 | 0.02 | 0.02 | 85 | 1008.0 |
| 20260509101508 | 46 | 13 | 5.0 | 11.0 | 0.00 | 0.02 | 0.02 | 85 | 1007.9 |
| 20260509100011 | 47 | 55 | 5.0 | 14.0 | 0.00 | 0.02 | 0.02 | 85 | 1007.6 |
| 20260509094516 | 48 | 49 | 4.0 | 12.0 | 0.00 | 0.02 | 0.02 | 84 | 1007.2 |
| 20260509093026 | 49 | 26 | 8.0 | 14.0 | 0.01 | 0.02 | 0.02 | 82 | 1006.8 |